When you browse on this site, cookies collect data to enhance your experience and personalize the content and advertising you see.
Visit our Privacy Policy to learn more. By continuing to use the site, you agree to this use of cookies and data.
  • Em Portugal
  • Lista de países
  • Para 7 dias
  • Temperatura da água
  • Mapa do tempo
  • Widgets de tempo
  • user-avatar
    Iniciar Sessão

    Previsão horária em Janowiec

    Hoje, 12 Dezembro, Quinta-feira

    Tempo Temperatura Precipitação Vento Pressão Humidade
    00:00 -4°C° 0 mm 5 m/s 742 mmHg 71%
    01:00 -4°C° 0 mm 5 m/s 742 mmHg 75%
    02:00 -5°C° 0 mm 5 m/s 741 mmHg 74%
    03:00 -4°C° 0 mm 4 m/s 740 mmHg 73%
    04:00 -4°C° 0 mm 4 m/s 740 mmHg 72%
    05:00 -4°C° 0 mm 4 m/s 739 mmHg 70%
    06:00 -4°C° 0 mm 4 m/s 739 mmHg 69%
    07:00 -4°C° 0 mm 4 m/s 739 mmHg 67%
    08:00 -3°C° 0 mm 4 m/s 739 mmHg 64%
    09:00 -3°C° 0 mm 4 m/s 739 mmHg 62%
    10:00 -3°C° 0 mm 4 m/s 738 mmHg 60%
    11:00 -2°C° 0 mm 4 m/s 738 mmHg 64%
    12:00 -2°C° 0 mm 4 m/s 738 mmHg 68%
    13:00 -1°C° 0 mm 4 m/s 739 mmHg 72%
    14:00 -1°C° 0 mm 4 m/s 738 mmHg 77%
    15:00 -1°C° 0 mm 4 m/s 738 mmHg 82%
    16:00 0°C° 0 mm 3 m/s 738 mmHg 87%
    17:00 0°C° 0.1 mm 3 m/s 738 mmHg 90%
    18:00 0°C° 0.1 mm 3 m/s 738 mmHg 94%
    19:00 0°C° 0.1 mm 3 m/s 738 mmHg 97%
    20:00 0°C° 0 mm 3 m/s 738 mmHg 96%
    21:00 0°C° 0 mm 3 m/s 738 mmHg 96%
    22:00 0°C° 0 mm 3 m/s 737 mmHg 95%
    23:00 0°C° 0 mm 3 m/s 737 mmHg 94%

    Amanhã, 13 Dezembro, Sexta-feira

    Tempo Temperatura Precipitação Vento Pressão Humidade
    00:00 0°C° 0 mm 3 m/s 736 mmHg 93%
    01:00 0°C° 0 mm 3 m/s 736 mmHg 91%
    02:00 -1°C° 0 mm 3 m/s 735 mmHg 90%
    03:00 -2°C° 0 mm 4 m/s 734 mmHg 88%
    04:00 -2°C° 0 mm 4 m/s 734 mmHg 86%
    05:00 -2°C° 0 mm 4 m/s 733 mmHg 87%
    06:00 -2°C° 0 mm 4 m/s 732 mmHg 88%
    07:00 -2°C° 0 mm 4 m/s 732 mmHg 88%
    08:00 -2°C° 0 mm 5 m/s 731 mmHg 89%
    09:00 -2°C° 0 mm 5 m/s 731 mmHg 90%
    10:00 -2°C° 0 mm 5 m/s 730 mmHg 91%
    11:00 -1°C° 0 mm 5 m/s 730 mmHg 90%
    12:00 -1°C° 0 mm 5 m/s 729 mmHg 89%
    13:00 -1°C° 0 mm 5 m/s 729 mmHg 88%
    14:00 -1°C° 0 mm 5 m/s 729 mmHg 89%
    15:00 -1°C° 0 mm 5 m/s 728 mmHg 91%
    16:00 -1°C° 0 mm 5 m/s 728 mmHg 92%
    17:00 -1°C° 0 mm 5 m/s 728 mmHg 92%
    18:00 -1°C° 0 mm 4 m/s 728 mmHg 92%
    19:00 -1°C° 0 mm 4 m/s 729 mmHg 92%
    20:00 -1°C° 0 mm 4 m/s 729 mmHg 92%
    21:00 -1°C° 0 mm 4 m/s 729 mmHg 92%
    22:00 -1°C° 0 mm 4 m/s 729 mmHg 92%
    23:00 -1°C° 0 mm 4 m/s 729 mmHg 91%

    Depois de amanhã, 14 Dezembro, Sábado

    Tempo Temperatura Precipitação Vento Pressão Humidade
    00:00 -1°C° 0 mm 4 m/s 729 mmHg 90%
    01:00 -2°C° 0 mm 4 m/s 729 mmHg 89%
    02:00 -2°C° 0 mm 4 m/s 729 mmHg 88%
    03:00 -1°C° 0 mm 5 m/s 729 mmHg 87%
    04:00 -1°C° 0 mm 5 m/s 729 mmHg 87%
    05:00 0°C° 0.3 mm 5 m/s 729 mmHg 89%
    06:00 -1°C° 0.3 mm 6 m/s 729 mmHg 91%
    07:00 +1°C° 0.3 mm 6 m/s 730 mmHg 94%
    08:00 +1°C° 0.1 mm 6 m/s 730 mmHg 91%
    09:00 +1°C° 0.1 mm 6 m/s 730 mmHg 88%
    10:00 +1°C° 0.1 mm 6 m/s 730 mmHg 85%
    11:00 +1°C° 0 mm 6 m/s 730 mmHg 86%
    12:00 +1°C° 0 mm 6 m/s 730 mmHg 88%
    13:00 +1°C° 0 mm 6 m/s 730 mmHg 89%
    14:00 +1°C° 0 mm 6 m/s 730 mmHg 89%
    15:00 -1°C° 0 mm 6 m/s 730 mmHg 89%
    16:00 -1°C° 0 mm 6 m/s 730 mmHg 89%
    17:00 0°C° 0.4 mm 7 m/s 730 mmHg 90%
    18:00 0°C° 0.4 mm 7 m/s 730 mmHg 90%
    19:00 +2°C° 0.4 mm 7 m/s 730 mmHg 91%
    20:00 +2°C° 0.1 mm 7 m/s 731 mmHg 85%
    21:00 0°C° 0.1 mm 7 m/s 732 mmHg 79%
    22:00 +1°C° 0.1 mm 6 m/s 733 mmHg 74%
    23:00 +1°C° 0 mm 6 m/s 734 mmHg 74%

    15 Dezembro, Domingo

    Tempo Temperatura Precipitação Vento Pressão Humidade
    00:00 +1°C° 0 mm 6 m/s 735 mmHg 75%
    01:00 -1°C° 0 mm 6 m/s 735 mmHg 76%
    02:00 +1°C° 0.1 mm 6 m/s 736 mmHg 78%
    03:00 +1°C° 0.1 mm 6 m/s 736 mmHg 81%
    04:00 +1°C° 0.1 mm 6 m/s 736 mmHg 83%
    05:00 +1°C° 0 mm 5 m/s 737 mmHg 84%
    06:00 0°C° 0 mm 5 m/s 737 mmHg 85%
    07:00 -1°C° 0 mm 4 m/s 737 mmHg 86%
    08:00 0°C° 0 mm 4 m/s 737 mmHg 84%
    09:00 0°C° 0 mm 5 m/s 737 mmHg 81%
    10:00 +1°C° 0 mm 5 m/s 736 mmHg 78%
    11:00 +2°C° 0.6 mm 6 m/s 736 mmHg 82%
    12:00 +3°C° 0.6 mm 6 m/s 735 mmHg 86%
    13:00 +5°C° 0.6 mm 7 m/s 735 mmHg 90%
    14:00 +4°C° 0.1 mm 7 m/s 735 mmHg 83%
    15:00 +4°C° 0.1 mm 7 m/s 735 mmHg 76%
    16:00 +4°C° 0.1 mm 7 m/s 736 mmHg 70%
    17:00 +2°C° 0 mm 8 m/s 737 mmHg 68%
    18:00 +2°C° 0 mm 9 m/s 738 mmHg 66%
    19:00 +1°C° 0 mm 9 m/s 740 mmHg 64%
    20:00 +1°C° 0 mm 8 m/s 741 mmHg 66%
    21:00 0°C° 0 mm 7 m/s 742 mmHg 69%
    22:00 +1°C° 0 mm 6 m/s 743 mmHg 72%
    23:00 -1°C° 0 mm 6 m/s 744 mmHg 72%

    16 Dezembro, Segunda-feira

    Tempo Temperatura Precipitação Vento Pressão Humidade
    00:00 -1°C° 0 mm 6 m/s 744 mmHg 72%
    01:00 -1°C° 0 mm 5 m/s 745 mmHg 72%
    02:00 -1°C° 0 mm 5 m/s 745 mmHg 74%
    03:00 -1°C° 0 mm 5 m/s 745 mmHg 76%
    04:00 -1°C° 0 mm 5 m/s 745 mmHg 78%
    05:00 0°C° 0 mm 5 m/s 745 mmHg 80%
    06:00 0°C° 0 mm 5 m/s 745 mmHg 81%
    07:00 0°C° 0 mm 5 m/s 745 mmHg 83%
    08:00 0°C° 0 mm 5 m/s 745 mmHg 84%
    09:00 +1°C° 0 mm 4 m/s 746 mmHg 85%
    10:00 +1°C° 0 mm 4 m/s 746 mmHg 86%
    11:00 +1°C° 0 mm 4 m/s 746 mmHg 85%
    12:00 +3°C° 0 mm 3 m/s 746 mmHg 84%
    13:00 +3°C° 0 mm 3 m/s 746 mmHg 84%
    14:00 +2°C° 0 mm 3 m/s 746 mmHg 86%
    15:00 +2°C° 0 mm 3 m/s 746 mmHg 89%
    16:00 +3°C° 0 mm 2 m/s 746 mmHg 91%
    17:00 +3°C° 0 mm 2 m/s 746 mmHg 92%
    18:00 +2°C° 0 mm 3 m/s 746 mmHg 93%
    19:00 +2°C° 0 mm 3 m/s 746 mmHg 94%
    20:00 +3°C° 0 mm 2 m/s 746 mmHg 94%
    21:00 +3°C° 0 mm 2 m/s 746 mmHg 95%
    22:00 +3°C° 0 mm 2 m/s 746 mmHg 95%
    23:00 +4°C° 0.1 mm 2 m/s 746 mmHg 96%

    17 Dezembro, Terça-feira

    Tempo Temperatura Precipitação Vento Pressão Humidade
    00:00 +4°C° 0.1 mm 2 m/s 745 mmHg 96%
    01:00 +4°C° 0.1 mm 2 m/s 745 mmHg 96%
    02:00 +4°C° 0.4 mm 2 m/s 745 mmHg 95%
    03:00 +4°C° 0.4 mm 2 m/s 745 mmHg 94%
    04:00 +4°C° 0.4 mm 2 m/s 744 mmHg 94%
    05:00 +3°C° 0 mm 3 m/s 744 mmHg 92%
    06:00 +3°C° 0 mm 3 m/s 744 mmHg 90%
    07:00 +3°C° 0 mm 4 m/s 744 mmHg 88%
    08:00 +3°C° 0 mm 4 m/s 744 mmHg 88%
    09:00 +3°C° 0 mm 4 m/s 744 mmHg 87%
    10:00 +3°C° 0 mm 4 m/s 744 mmHg 87%
    11:00 +4°C° 0 mm 4 m/s 743 mmHg 86%
    12:00 +4°C° 0 mm 4 m/s 743 mmHg 85%
    13:00 +4°C° 0 mm 4 m/s 743 mmHg 84%
    14:00 +4°C° 0 mm 4 m/s 743 mmHg 83%
    15:00 +4°C° 0 mm 4 m/s 743 mmHg 83%
    16:00 +4°C° 0 mm 4 m/s 743 mmHg 83%
    17:00 +4°C° 0 mm 4 m/s 743 mmHg 83%
    18:00 +4°C° 0 mm 4 m/s 743 mmHg 83%
    19:00 +5°C° 0 mm 4 m/s 743 mmHg 83%
    20:00 +5°C° 0 mm 4 m/s 743 mmHg 84%
    21:00 +5°C° 0 mm 4 m/s 743 mmHg 86%
    22:00 +5°C° 0 mm 3 m/s 743 mmHg 87%
    23:00 +5°C° 0.1 mm 4 m/s 743 mmHg 88%
    Mostrar mais